Total_Precipitation_Accumulation
1.39 1.45 2.20 3.41 3.92 3.22 2.69 2.06 1.31 1.30 1.10 0.75 0.62 0.70 1.13 1.72 2.05 2.36 2.37 1.96 1.27 1.06 1.17 1.80 2.43 2.23 2.12 2.17 2.28 2.41 2.45 2.44 2.35 2.19 2.01 1.88 1.66 1.53 1.49 1.42 1.31 1.17 1.15 1.10 1.14 1.21 1.31 1.40 1.44
1.25 2.04 3.01 4.03 3.61 2.84 2.71 2.04 1.50 1.12 0.73 0.52 0.51 0.60 0.85 0.97 0.93 1.41 2.46 2.24 1.29 1.04 1.09 1.37 2.26 2.31 2.22 2.29 2.32 2.22 2.16 2.07 1.92 1.91 1.89 1.77 1.69 1.58 1.48 1.39 1.28 1.14 1.12 1.12 1.14 1.13 1.18 1.26 1.31
1.61 2.56 3.53 3.65 2.74 2.54 2.54 1.83 1.31 0.71 0.47 0.52 0.57 0.57 0.77 1.06 1.15 1.71 2.25 1.71 1.19 1.02 1.11 1.54 2.30 2.35 2.28 2.23 2.20 2.23 2.06 1.96 1.76 1.66 1.72 1.65 1.62 1.48 1.42 1.37 1.22 1.13 1.15 1.08 1.10 1.13 1.14 1.26 1.28
1.95 2.80 3.09 2.70 2.27 1.82 1.51 1.36 0.94 0.77 0.60 0.39 0.49 0.65 0.64 0.98 1.26 1.55 1.43 1.14 1.08 1.09 1.16 1.54 2.10 2.22 2.25 2.20 2.16 2.07 1.89 1.76 1.67 1.57 1.62 1.63 1.61 1.49 1.38 1.27 1.23 1.15 1.15 1.13 1.13 1.18 1.23 1.31 1.28
2.25 2.82 2.71 2.19 2.10 1.60 1.18 1.00 0.77 0.92 0.83 0.52 0.46 0.69 0.85 1.14 1.25 1.32 1.22 1.07 1.10 1.17 1.15 1.44 1.95 2.06 2.15 2.07 1.89 1.86 1.85 1.71 1.59 1.52 1.49 1.50 1.53 1.48 1.39 1.41 1.38 1.24 1.22 1.25 1.25 1.33 1.28 1.29 1.30
2.43 2.52 2.40 2.16 2.21 1.82 1.47 1.07 0.85 0.95 0.76 0.52 0.50 0.74 1.03 1.27 1.39 1.34 1.21 1.23 1.22 1.21 1.12 1.24 1.70 1.90 1.96 1.90 1.82 1.82 1.78 1.67 1.51 1.41 1.37 1.39 1.41 1.33 1.27 1.31 1.31 1.27 1.26 1.31 1.29 1.30 1.19 1.20 1.31
2.68 2.54 2.16 1.79 2.04 2.30 1.73 1.09 1.01 1.03 0.94 0.69 0.51 0.84 1.12 1.32 1.38 1.16 1.12 1.37 1.52 1.48 1.32 1.22 1.34 1.54 1.70 1.86 1.87 1.92 1.89 1.81 1.67 1.49 1.40 1.40 1.33 1.17 1.12 1.23 1.28 1.31 1.29 1.36 1.39 1.38 1.26 1.23 1.40
2.16 2.25 1.85 1.83 2.10 2.39 1.67 1.10 0.90 0.89 0.92 0.61 0.56 0.93 1.29 1.23 1.23 1.19 1.12 1.26 1.39 1.43 1.40 1.30 1.34 1.41 1.49 1.64 1.88 2.11 2.19 2.24 1.98 1.63 1.50 1.37 1.19 1.12 1.17 1.23 1.33 1.45 1.47 1.52 1.57 1.54 1.41 1.43 1.48
2.06 2.42 2.26 2.33 2.27 1.89 1.26 1.18 0.89 0.70 0.76 0.72 0.59 0.64 0.85 0.80 0.84 1.02 1.10 1.11 1.07 1.04 1.12 1.17 1.23 1.37 1.42 1.47 1.58 1.95 2.17 2.30 1.95 1.49 1.49 1.34 1.12 1.07 1.19 1.25 1.64 1.76 1.78 1.79 1.80 1.72 1.65 1.56 1.50
2.16 2.27 2.09 1.75 1.51 1.35 1.19 1.09 0.86 0.90 1.06 0.97 0.81 0.71 0.72 0.74 0.83 0.92 0.92 0.94 0.88 0.87 0.81 0.83 0.84 0.93 1.13 1.23 1.51 1.82 1.87 1.99 1.66 1.42 1.41 1.35 1.41 1.36 1.13 1.26 1.70 1.91 1.97 1.81 1.75 1.79 1.65 1.39 1.18
1.66 1.75 1.38 1.12 0.88 0.90 0.95 0.87 0.70 0.85 1.11 0.88 0.77 0.75 0.78 0.83 0.83 0.88 0.86 0.73 0.66 0.65 0.64 0.63 0.67 0.69 0.86 1.20 1.51 1.76 1.87 1.96 1.93 1.85 1.62 1.59 1.50 1.31 1.16 1.16 1.26 1.39 1.44 1.36 1.47 1.51 1.33 1.23 1.11
1.50 1.29 1.07 1.01 0.76 0.78 0.77 0.72 0.79 0.73 0.72 0.58 0.53 0.60 0.78 0.89 0.84 0.78 0.80 0.75 0.68 0.67 0.67 0.60 0.53 0.59 0.72 0.92 1.16 1.50 1.70 1.78 1.76 1.69 1.39 1.44 1.47 1.32 1.28 1.36 1.42 1.40 1.39 1.53 1.59 1.58 1.49 1.32 1.10
1.44 1.22 0.94 0.73 0.68 0.66 0.68 0.71 0.74 0.67 0.55 0.50 0.49 0.59 0.78 0.89 0.87 0.75 0.69 0.66 0.68 0.77 0.86 0.80 0.64 0.62 0.72 0.82 0.87 1.05 1.24 1.34 1.61 1.67 1.30 1.18 1.22 1.33 1.36 1.27 1.44 1.52 1.56 1.61 1.67 1.59 1.48 1.48 1.31
1.26 1.03 0.83 0.71 0.68 0.62 0.67 0.69 0.68 0.77 0.59 0.54 0.57 0.67 0.77 0.86 0.87 0.73 0.64 0.57 0.56 0.63 0.74 0.78 0.77 0.80 0.83 0.82 0.79 0.77 0.81 0.98 1.15 1.18 1.03 0.99 1.01 1.17 1.40 1.31 1.31 1.41 1.60 1.72 1.73 1.66 1.70 1.69 1.47
0.87 0.91 0.96 0.85 0.79 0.74 0.79 0.98 0.74 0.66 0.58 0.57 0.60 0.68 0.66 0.67 0.68 0.60 0.54 0.45 0.45 0.53 0.58 0.66 0.72 0.79 0.86 0.96 0.94 0.78 0.76 0.87 0.92 0.90 0.91 0.95 0.95 1.10 1.35 1.30 1.21 1.22 1.38 1.57 1.79 1.86 1.85 1.64 1.54
1.03 1.03 1.32 1.05 0.96 0.87 0.97 1.12 0.68 0.61 0.59 0.56 0.58 0.70 0.67 0.55 0.49 0.46 0.48 0.47 0.44 0.50 0.52 0.57 0.56 0.65 0.78 0.96 1.04 0.98 0.95 0.97 0.92 0.82 0.76 0.79 0.82 0.90 1.17 1.25 1.17 1.16 1.33 1.57 1.83 2.01 2.07 1.88 1.82
1.34 1.27 1.18 1.05 0.94 0.83 0.77 0.79 0.59 0.53 0.51 0.51 0.52 0.62 0.62 0.49 0.43 0.39 0.38 0.40 0.44 0.48 0.49 0.51 0.54 0.57 0.64 0.80 0.94 0.92 0.93 0.98 0.94 0.87 0.81 0.75 0.74 0.84 1.10 1.32 1.35 1.33 1.45 1.57 1.58 1.84 2.00 2.11 2.02
1.06 0.93 0.91 0.84 0.74 0.70 0.64 0.57 0.52 0.45 0.44 0.48 0.50 0.54 0.52 0.39 0.34 0.33 0.33 0.38 0.45 0.47 0.50 0.55 0.57 0.56 0.57 0.63 0.74 0.83 0.82 0.85 0.91 0.86 0.87 0.90 0.95 1.01 1.25 1.50 1.54 1.59 1.64 1.73 1.92 2.21 2.25 2.18 2.19
0.79 0.75 0.74 0.61 0.49 0.54 0.57 0.58 0.52 0.49 0.44 0.44 0.46 0.44 0.47 0.40 0.36 0.29 0.28 0.29 0.37 0.42 0.46 0.52 0.59 0.58 0.53 0.51 0.60 0.68 0.70 0.82 0.93 1.00 1.09 1.09 1.10 1.19 1.42 1.62 1.86 1.97 1.84 1.87 2.10 2.41 2.56 2.37 2.20
0.81 0.82 0.78 0.69 0.52 0.52 0.56 0.60 0.52 0.47 0.44 0.38 0.34 0.33 0.38 0.35 0.34 0.30 0.29 0.28 0.29 0.33 0.38 0.45 0.49 0.48 0.44 0.41 0.48 0.59 0.67 0.77 0.98 1.18 1.39 1.32 1.22 1.26 1.30 1.59 1.78 1.88 1.96 1.98 2.09 2.40 2.75 2.54 2.24
0.72 0.68 0.62 0.70 0.63 0.60 0.68 0.75 0.63 0.54 0.49 0.40 0.32 0.32 0.35 0.33 0.28 0.29 0.29 0.32 0.28 0.30 0.35 0.42 0.45 0.47 0.46 0.52 0.70 0.99 1.26 1.39 1.46 1.53 1.76 1.78 1.65 1.60 1.57 1.63 1.74 1.82 1.98 2.11 2.16 2.21 2.55 2.64 2.43
0.77 0.55 0.48 0.60 0.78 0.76 0.66 0.82 0.59 0.53 0.59 0.46 0.37 0.33 0.33 0.33 0.30 0.28 0.29 0.33 0.27 0.30 0.37 0.43 0.46 0.55 0.57 0.70 1.03 1.46 1.78 1.91 1.88 1.96 2.04 2.13 2.06 1.89 1.90 1.93 2.01 1.94 1.93 2.02 2.01 2.01 2.26 2.60 2.67
0.74 0.61 0.60 0.66 0.72 0.69 0.48 0.55 0.49 0.49 0.58 0.48 0.43 0.42 0.41 0.36 0.33 0.32 0.33 0.35 0.32 0.35 0.43 0.51 0.60 0.78 0.94 1.06 1.24 1.57 1.73 1.79 1.91 2.06 2.30 2.48 2.53 2.46 2.43 2.36 2.19 2.00 1.96 2.02 2.04 2.06 2.18 2.31 2.48
0.56 0.68 0.80 0.80 0.79 0.76 0.40 0.39 0.45 0.45 0.43 0.43 0.42 0.45 0.44 0.37 0.32 0.34 0.40 0.44 0.44 0.50 0.58 0.64 0.82 0.98 1.04 1.15 1.27 1.40 1.48 1.60 1.80 1.99 2.24 2.41 2.44 2.45 2.39 2.21 1.97 1.81 1.77 1.86 2.00 2.01 2.08 2.10 2.19
0.53 0.77 1.10 1.19 1.10 0.77 0.34 0.34 0.41 0.33 0.29 0.33 0.35 0.33 0.33 0.34 0.35 0.37 0.39 0.47 0.51 0.57 0.64 0.75 0.90 1.07 1.11 1.20 1.30 1.31 1.36 1.47 1.62 1.73 1.80 1.84 1.83 1.85 1.84 1.84 1.81 1.70 1.61 1.71 1.94 2.03 2.06 2.06 2.06
0.44 0.55 0.91 1.11 0.92 0.65 0.37 0.44 0.42 0.27 0.22 0.20 0.24 0.27 0.31 0.39 0.42 0.44 0.44 0.56 0.64 0.71 0.81 0.92 1.02 1.11 1.16 1.25 1.33 1.31 1.39 1.49 1.56 1.53 1.49 1.56 1.58 1.63 1.64 1.70 1.72 1.65 1.61 1.63 1.76 1.90 2.01 2.01 1.95
0.42 0.43 0.50 0.64 0.53 0.55 0.43 0.38 0.30 0.19 0.18 0.17 0.23 0.33 0.42 0.49 0.52 0.55 0.58 0.66 0.75 0.82 0.90 1.00 1.12 1.21 1.26 1.27 1.34 1.48 1.53 1.52 1.49 1.36 1.31 1.37 1.33 1.30 1.39 1.50 1.59 1.54 1.51 1.53 1.66 1.81 1.84 1.92 2.00
0.34 0.43 0.54 0.63 0.71 0.66 0.45 0.40 0.36 0.25 0.24 0.27 0.33 0.42 0.56 0.66 0.69 0.72 0.78 0.84 0.89 0.92 1.00 1.09 1.20 1.33 1.31 1.32 1.42 1.58 1.53 1.30 1.14 1.06 1.09 1.13 1.18 1.23 1.24 1.19 1.19 1.17 1.22 1.24 1.34 1.52 1.62 1.66 1.75
0.35 0.34 0.44 0.54 0.55 0.77 0.88 0.83 0.65 0.60 0.49 0.54 0.58 0.67 0.84 0.91 0.92 0.90 0.95 1.01 0.99 1.01 1.10 1.13 1.20 1.37 1.39 1.30 1.40 1.41 1.20 0.95 0.85 0.86 0.87 0.88 0.88 0.92 0.96 0.88 0.86 0.92 0.96 0.92 1.02 1.13 1.22 1.33 1.43
0.28 0.28 0.32 0.54 0.56 0.61 0.94 0.98 0.81 0.84 0.81 0.91 1.00 1.16 1.13 1.11 1.13 1.05 0.99 1.00 0.93 0.91 1.01 1.09 1.21 1.28 1.21 1.17 1.17 1.01 0.82 0.71 0.67 0.65 0.63 0.63 0.66 0.65 0.67 0.65 0.61 0.68 0.81 0.84 0.93 0.98 0.98 1.08 1.21